FW6724 Weather Reports


Display with metric or nautical units.
time (UTC)temp
F
wind
direction
speed
MPH
gust
MPH
rain 1hr
in
rain 24hr
in
rain mn
in
humidity
%
barometer
mb
20260906154545 89 131 7.0 12.0 0.00 0.00 0.00 42 1020.5
20260906153046 90 71 6.0 11.0 0.00 0.00 0.00 38 1020.4
20260906151543 91 65 4.0 12.0 0.00 0.00 0.00 37 1020.5
20260906150057 91 102 5.0 14.0 0.00 0.00 0.00 36 1020.5
20260906144557 91 120 5.0 12.0 0.00 0.00 0.00 38 1020.6
20260906143040 91 105 7.0 13.0 0.00 0.00 0.00 40 1020.8
20260906141547 91 85 8.0 12.0 0.00 0.00 0.00 40 1020.9
20260906140044 91 149 6.0 15.0 0.00 0.00 0.00 40 1021.0
20260906134542 92 96 6.0 12.0 0.00 0.00 0.00 37 1021.0
20260906133043 92 96 5.0 15.0 0.00 0.00 0.00 36 1021.1
20260906131545 91 134 4.0 13.0 0.00 0.00 0.00 38 1021.4
20260906130049 90 134 8.0 14.0 0.00 0.00 0.00 42 1021.3
20260906124545 90 115 5.0 14.0 0.00 0.00 0.00 42 1021.3
20260906123042 91 112 6.0 15.0 0.00 0.00 0.00 39 1021.5
20260906121546 92 106 4.0 10.0 0.00 0.00 0.00 34 1021.5
20260906120049 92 61 5.0 13.0 0.00 0.00 0.00 32 1021.5
20260906114543 92 131 4.0 10.0 0.00 0.00 0.00 27 1021.4
20260906113042 92 113 3.0 10.0 0.00 0.00 0.00 25 1021.6
20260906111547 92 80 3.0 11.0 0.00 0.00 0.00 25 1021.9
20260906110043 90 145 1.0 6.0 0.00 0.00 0.00 26 1022.0
20260906104548 90 98 2.0 8.0 0.00 0.00 0.00 27 1022.1
20260906103042 89 111 3.0 6.0 0.00 0.00 0.00 27 1022.2
20260906101538 89 91 1.0 6.0 0.00 0.00 0.00 27 1022.3
20260906100046 89 55 3.0 5.0 0.00 0.00 0.00 27 1022.3
20260906094605 88 0 0.0 0.0 0.00 0.00 0.00 27 1022.4
20260906093041 87 128 2.0 7.0 0.00 0.00 0.00 27 1022.3
20260906091545 87 78 1.0 6.0 0.00 0.00 0.00 28 1022.2
20260906090046 85 119 2.0 7.0 0.00 0.00 0.00 33 1022.2
20260906084543 83 0 0.0 4.0 0.00 0.00 0.00 35 1022.1
20260906083039 81 0 0.0 0.0 0.00 0.00 0.00 38 1022.1
20260906081548 79 0 0.0 0.0 0.00 0.00 0.00 40 1022.1
20260906080046 77 0 0.0 1.0 0.00 0.00 0.00 42 1022.0
20260906074542 75 0 0.0 4.0 0.00 0.00 0.00 45 1021.9
20260906073041 74 86 2.0 6.0 0.00 0.00 0.00 47 1021.8
20260906071538 74 79 2.0 4.0 0.00 0.00 0.00 47 1021.7
20260906070044 74 61 2.0 3.0 0.00 0.00 0.00 48 1021.7
20260906064539 73 0 0.0 0.0 0.00 0.00 0.00 49 1021.4
20260906063043 71 0 0.0 0.0 0.00 0.00 0.00 50 1021.4
20260906061541 70 0 0.0 0.0 0.00 0.00 0.00 50 1021.3
20260906060039 70 0 0.0 0.0 0.00 0.00 0.00 50 1021.4
20260906054540 71 0 0.0 0.0 0.00 0.00 0.00 52 1021.1
20260906053042 71 0 0.0 0.0 0.00 0.00 0.00 50 1021.0
20260906051546 71 0 0.0 0.0 0.00 0.00 0.00 49 1021.1
20260906050050 71 0 0.0 0.0 0.00 0.00 0.00 49 1021.0
20260906044544 71 0 0.0 0.0 0.00 0.00 0.00 48 1021.1
20260906043047 71 0 0.0 0.0 0.00 0.00 0.00 48 1021.1
20260906041548 72 0 0.0 0.0 0.00 0.00 0.00 47 1021.3
20260906040055 72 0 0.0 0.0 0.00 0.00 0.00 48 1021.3
20260906034545 72 0 0.0 0.0 0.00 0.00 0.00 49 1021.4
20260906033040 72 0 0.0 0.0 0.00 0.00 0.00 49 1021.3
20260906031550 72 0 0.0 4.0 0.00 0.00 0.00 49 1021.4
20260906030040 71 295 1.0 4.0 0.00 0.00 0.00 50 1021.5
20260906024546 71 310 2.0 7.0 0.00 0.00 0.00 50 1021.6
20260906023050 72 284 3.0 4.0 0.00 0.00 0.00 49 1021.6
20260906021559 73 0 0.0 0.0 0.00 0.00 0.00 49 1021.6
20260906020054 73 0 0.0 0.0 0.00 0.00 0.00 51 1021.7
20260906014552 74 0 0.0 0.0 0.00 0.00 0.00 53 1021.7
20260906013044 74 0 0.0 0.0 0.00 0.00 0.00 52 1021.7
20260906011539 74 0 0.0 0.0 0.00 0.00 0.00 51 1021.9
20260906010040 74 0 0.0 0.0 0.00 0.00 0.00 50 1021.9
20260906004545 74 0 0.0 3.0 0.00 0.00 0.00 49 1021.9
20260906003046 74 281 1.0 4.0 0.00 0.00 0.00 50 1021.9
20260906001541 74 280 2.0 5.0 0.00 0.00 0.00 49 1021.9
20260906000046 75 284 2.0 4.0 0.00 0.00 0.00 49 1022.0
20260905234545 75 0 0.0 0.0 0.00 0.00 0.00 49 1022.0
20260905233044 76 0 0.0 0.0 0.00 0.00 0.00 49 1022.1
20260905231546 77 0 0.0 0.0 0.00 0.00 0.00 49 1022.1
20260905230052 77 0 0.0 0.0 0.00 0.00 0.00 49 1022.1
20260905224546 78 0 0.0 0.0 0.00 0.00 0.00 48 1022.4
20260905223043 78 0 0.0 0.0 0.00 0.00 0.00 48 1022.4
20260905221548 79 0 0.0 0.0 0.00 0.00 0.00 48 1022.1
20260905220044 79 0 0.0 0.0 0.00 0.00 0.00 47 1022.3
20260905214541 80 0 0.0 3.0 0.00 0.00 0.00 47 1022.3
20260905213045 80 0 1.0 3.0 0.00 0.00 0.00 47 1022.3
20260905211547 81 0 0.0 0.0 0.00 0.00 0.00 47 1022.3
20260905210103 81 0 0.0 0.0 0.00 0.00 0.00 46 1022.4
20260905204539 81 0 0.0 0.0 0.00 0.00 0.00 46 1022.5
20260905203046 83 0 0.0 0.0 0.00 0.00 0.00 50 1022.4
20260905201550 83 0 0.0 0.0 0.00 0.00 0.00 49 1022.4
20260905200056 83 0 0.0 0.0 0.00 0.00 0.00 47 1022.3
20260905194546 84 0 0.0 0.0 0.00 0.00 0.00 43 1022.2
20260905193044 84 0 0.0 4.0 0.00 0.00 0.00 41 1022.0
20260905191543 84 146 1.0 5.0 0.00 0.00 0.00 41 1021.9
20260905190041 84 101 1.0 6.0 0.00 0.00 0.00 42 1021.7
20260905184543 85 0 1.0 5.0 0.00 0.00 0.00 41 1021.7
20260905183048 86 96 3.0 5.0 0.00 0.00 0.00 39 1021.6
20260905181544 87 87 2.0 7.0 0.00 0.00 0.00 36 1021.5
20260905180045 88 91 2.0 8.0 0.00 0.00 0.00 29 1021.3
20260905174541 89 137 4.0 9.0 0.00 0.00 0.00 26 1021.2
20260905173045 90 121 6.0 10.0 0.00 0.00 0.00 21 1021.3
20260905171558 90 132 6.0 11.0 0.00 0.00 0.00 19 1021.1
20260905170047 91 76 6.0 10.0 0.00 0.00 0.00 22 1021.1
20260905164547 92 117 5.0 10.0 0.00 0.00 0.00 21 1021.0
20260905163045 93 74 4.0 10.0 0.00 0.00 0.00 20 1020.9
20260905161545 93 123 6.0 12.0 0.00 0.00 0.00 22 1020.8
20260905160048 94 134 4.0 11.0 0.00 0.00 0.00 21 1020.8